SCOT35 YBOK-YBOK

Flight info

Callsign SCOT35
Flight time 0h 1m
Altitude 1000
Route DCT OK OK DCT
Aircraft B06/L-SDFGRY/LB1

Departure

Time 2026-04-12 03:21
Airport Oakey Army Aviation Centre (YBOK)

Arrival

Time 2026-04-12 03:22
Airport Oakey Army Aviation Centre (YBOK)
Time Latitude Longitude Altitude Speed Heading
2026-04-12 03:12 -27.41291 151.73409 1342 ft 0 kts 98°
2026-04-12 03:13 -27.41305 151.73620 1342 ft 0 kts 273°
2026-04-12 03:16 -27.41306 151.73622 1374 ft 1 kts 262°
2026-04-12 03:16 -27.41308 151.73610 1356 ft 2 kts 287°
2026-04-12 03:17 -27.41296 151.73618 1379 ft 7 kts 84°
2026-04-12 03:17 -27.41303 151.73646 1371 ft 12 kts 251°
2026-04-12 03:17 -27.41320 151.73512 1370 ft 20 kts 276°
2026-04-12 03:17 -27.41292 151.73431 1369 ft 3 kts 271°
2026-04-12 03:18 -27.41280 151.73423 1371 ft 6 kts 85°
2026-04-12 03:18 -27.41263 151.73447 1371 ft 1 kts 53°
2026-04-12 03:18 -27.41221 151.73465 1357 ft 15 kts
2026-04-12 03:18 -27.41115 151.73497 1360 ft 11 kts 24°
2026-04-12 03:19 -27.41070 151.73525 1339 ft 2 kts 299°
2026-04-12 03:19 -27.41070 151.73529 1332 ft 1 kts 283°
2026-04-12 03:19 -27.41070 151.73526 1337 ft 1 kts 294°
2026-04-12 03:19 -27.41071 151.73528 1343 ft 1 kts 290°
2026-04-12 03:20 -27.41066 151.73494 1357 ft 16 kts 280°
2026-04-12 03:20 -27.41030 151.73227 1439 ft 51 kts 282°
2026-04-12 03:20 -27.40949 151.72733 1584 ft 72 kts 283°
2026-04-12 03:20 -27.40943 151.72358 1744 ft 74 kts 245°
2026-04-12 03:21 -27.41399 151.72666 1939 ft 90 kts 102°
2026-04-12 03:21 -27.41540 151.73410 2001 ft 101 kts 103°
2026-04-12 03:21 -27.41560 151.74209 1815 ft 98 kts 46°
2026-04-12 03:21 -27.41140 151.73979 1601 ft 96 kts 282°
2026-04-12 03:22 -27.41045 151.73357 1375 ft 58 kts 281°
2026-04-12 03:22 -27.41014 151.73166 1331 ft 14 kts 272°
2026-04-12 03:22 -27.40993 151.73019 1402 ft 43 kts 282°
2026-04-12 03:22 -27.40925 151.72583 1653 ft 67 kts 282°
2026-04-12 03:23 -27.41281 151.72350 2052 ft 73 kts 130°
2026-04-12 03:23 -27.41416 151.72734 2004 ft 89 kts 101°
2026-04-12 03:23 -27.41523 151.73531 1980 ft 66 kts 94°
2026-04-12 03:23 -27.41512 151.73863 1759 ft 59 kts 67°
2026-04-12 03:24 -27.41139 151.73827 1530 ft 57 kts 294°
2026-04-12 03:24 -27.41080 151.73564 1425 ft 40 kts 278°
2026-04-12 03:24 -27.41058 151.73417 1335 ft 0 kts 306°
2026-04-12 03:24 -27.41028 151.73226 1428 ft 49 kts 284°
2026-04-12 03:25 -27.40948 151.72753 1643 ft 73 kts 282°
2026-04-12 03:25 -27.40976 151.72139 1917 ft 79 kts 225°
2026-04-12 03:25 -27.41422 151.72602 2030 ft 98 kts 103°
2026-04-12 03:25 -27.41505 151.73258 2117 ft 70 kts 94°
2026-04-12 03:26 -27.41519 151.73618 1993 ft 71 kts 89°
2026-04-12 03:26 -27.41462 151.74174 1734 ft 71 kts 36°
2026-04-12 03:26 -27.41158 151.74032 1500 ft 51 kts 286°
2026-04-12 03:26 -27.41103 151.73701 1383 ft 34 kts 286°
2026-04-12 03:27 -27.41078 151.73545 1332 ft 7 kts 309°
2026-04-12 03:27 -27.41065 151.73466 1367 ft 30 kts 286°
2026-04-12 03:27 -27.40986 151.72979 1547 ft 61 kts 281°
2026-04-12 03:27 -27.40917 151.72674 1708 ft 64 kts 274°
2026-04-12 03:28 -27.41265 151.72391 1980 ft 75 kts 148°
2026-04-12 03:28 -27.41481 151.72740 2021 ft 88 kts 113°
2026-04-12 03:28 -27.41592 151.73382 2062 ft 76 kts 94°
2026-04-12 03:28 -27.41608 151.73944 1828 ft 73 kts 75°
2026-04-12 03:29 -27.41264 151.74079 1601 ft 60 kts 327°
2026-04-12 03:29 -27.41104 151.73752 1413 ft 30 kts 279°
2026-04-12 03:29 -27.41086 151.73600 1354 ft 10 kts 288°
2026-04-12 03:29 -27.41075 151.73522 1335 ft 6 kts 296°
2026-04-12 03:30 -27.41073 151.73509 1333 ft 0 kts 300°
2026-04-12 03:30 -27.41049 151.73359 1400 ft 42 kts 281°
2026-04-12 03:30 -27.40969 151.72969 1571 ft 52 kts 289°
2026-04-12 03:31 -27.40938 151.72516 1752 ft 62 kts 268°
2026-04-12 03:31 -27.41279 151.72371 1952 ft 70 kts 159°
2026-04-12 03:31 -27.41510 151.72905 1955 ft 93 kts 99°
2026-04-12 03:31 -27.41586 151.73622 2048 ft 80 kts 102°
2026-04-12 03:32 -27.41613 151.74155 1879 ft 61 kts 52°
2026-04-12 03:32 -27.41263 151.74181 1594 ft 60 kts 325°
2026-04-12 03:32 -27.41117 151.73809 1429 ft 39 kts 275°
2026-04-12 03:32 -27.41088 151.73609 1364 ft 16 kts 282°
2026-04-12 03:33 -27.41076 151.73534 1330 ft 0 kts 301°
2026-04-12 03:33 -27.41067 151.73466 1359 ft 22 kts 284°
2026-04-12 03:33 -27.41017 151.73178 1484 ft 55 kts 285°
2026-04-12 03:33 -27.40933 151.72615 1625 ft 83 kts 281°
2026-04-12 03:34 -27.41174 151.72254 1961 ft 74 kts 155°
2026-04-12 03:34 -27.41476 151.72845 1997 ft 102 kts 103°
2026-04-12 03:34 -27.41578 151.73528 2091 ft 74 kts 95°
2026-04-12 03:34 -27.41533 151.74077 1820 ft 73 kts 45°
2026-04-12 03:35 -27.41157 151.74012 1531 ft 63 kts 286°
2026-04-12 03:35 -27.41096 151.73646 1382 ft 27 kts 288°
2026-04-12 03:35 -27.41078 151.73539 1330 ft 0 kts 296°
2026-04-12 03:35 -27.41069 151.73517 1337 ft 15 kts 297°
2026-04-12 03:36 -27.41035 151.73270 1406 ft 49 kts 283°
2026-04-12 03:36 -27.40955 151.72797 1553 ft 74 kts 283°
2026-04-12 03:36 -27.41046 151.72307 1930 ft 64 kts 205°
2026-04-12 03:36 -27.41462 151.72621 2010 ft 89 kts 120°
2026-04-12 03:37 -27.41611 151.73300 2065 ft 83 kts 95°
2026-04-12 03:37 -27.41708 151.73903 1979 ft 75 kts 96°
2026-04-12 03:37 -27.41433 151.74266 1785 ft 69 kts 354°
2026-04-12 03:37 -27.41125 151.73930 1526 ft 64 kts 278°
2026-04-12 03:38 -27.41084 151.73591 1367 ft 19 kts 285°
2026-04-12 03:38 -27.41077 151.73543 1330 ft 0 kts 292°
2026-04-12 03:38 -27.41045 151.73345 1440 ft 50 kts 284°
2026-04-12 03:38 -27.40974 151.72872 1609 ft 73 kts 280°
2026-04-12 03:39 -27.41012 151.72337 1958 ft 58 kts 209°
2026-04-12 03:39 -27.41425 151.72547 2051 ft 83 kts 125°
2026-04-12 03:39 -27.41618 151.73207 1956 ft 87 kts 96°
2026-04-12 03:39 -27.41635 151.73806 1861 ft 75 kts 81°
2026-04-12 03:40 -27.41277 151.74091 1749 ft 70 kts 331°
2026-04-12 03:40 -27.41107 151.73717 1471 ft 32 kts 279°
2026-04-12 03:40 -27.41081 151.73579 1343 ft 7 kts 292°
2026-04-12 03:40 -27.41076 151.73536 1330 ft 0 kts 311°
2026-04-12 03:41 -27.41071 151.73516 1352 ft 20 kts 292°
2026-04-12 03:41 -27.41012 151.73160 1467 ft 67 kts 284°
2026-04-12 03:41 -27.40924 151.72553 1719 ft 82 kts 282°
2026-04-12 03:41 -27.41208 151.72264 2052 ft 81 kts 160°
2026-04-12 03:42 -27.41534 151.72847 1993 ft 95 kts 102°
2026-04-12 03:42 -27.41620 151.73507 1996 ft 74 kts 95°
2026-04-12 03:42 -27.41575 151.74085 1779 ft 70 kts 37°
2026-04-12 03:42 -27.41186 151.74067 1628 ft 60 kts 298°
2026-04-12 03:43 -27.41112 151.73758 1463 ft 29 kts 279°
2026-04-12 03:43 -27.41081 151.73572 1366 ft 15 kts 280°
2026-04-12 03:43 -27.41072 151.73522 1330 ft 0 kts 292°
2026-04-12 03:43 -27.41066 151.73488 1367 ft 21 kts 275°
2026-04-12 03:44 -27.41020 151.73200 1492 ft 51 kts 280°
2026-04-12 03:44 -27.40939 151.72710 1619 ft 74 kts 274°
2026-04-12 03:44 -27.41094 151.72354 1849 ft 78 kts 180°
2026-04-12 03:44 -27.41525 151.72886 1945 ft 112 kts 104°
2026-04-12 03:45 -27.41635 151.73714 2063 ft 96 kts 96°
2026-04-12 03:45 -27.41474 151.74253 1878 ft 66 kts
2026-04-12 03:45 -27.41158 151.74039 1587 ft 53 kts 272°
2026-04-12 03:45 -27.41103 151.73731 1458 ft 24 kts 275°
2026-04-12 03:46 -27.41081 151.73596 1386 ft 14 kts 279°
2026-04-12 03:46 -27.41072 151.73532 1342 ft 1 kts 275°
2026-04-12 03:46 -27.41033 151.73532 1377 ft 26 kts 345°
2026-04-12 03:46 -27.40881 151.73494 1385 ft 15 kts 294°
2026-04-12 03:47 -27.40847 151.73435 1364 ft 4 kts 283°
2026-04-12 03:47 -27.40843 151.73408 1352 ft 3 kts 285°
2026-04-12 03:47 -27.40843 151.73404 1350 ft 1 kts 275°
2026-04-12 03:47 -27.40843 151.73400 1357 ft 1 kts 270°
2026-04-12 03:48 -27.40843 151.73407 1366 ft 4 kts 213°
2026-04-12 03:48 -27.40841 151.73443 1368 ft 2 kts 278°
2026-04-12 03:48 -27.40814 151.73467 1428 ft 13 kts 218°
2026-04-12 03:48 -27.40958 151.73517 1394 ft 36 kts 190°
2026-04-12 03:49 -27.41155 151.73483 1386 ft 17 kts 215°
2026-04-12 03:49 -27.41227 151.73465 1362 ft 14 kts 212°
2026-04-12 03:49 -27.41290 151.73432 1362 ft 6 kts 255°
2026-04-12 03:49 -27.41291 151.73406 1354 ft 1 kts 293°
2026-04-12 03:50 -27.41277 151.73423 1346 ft 1 kts 194°
2026-04-12 03:50 -27.41289 151.73392 1377 ft 10 kts 94°
2026-04-12 03:50 -27.41283 151.73412 1361 ft 4 kts 241°
2026-04-12 03:50 -27.41279 151.73399 1359 ft 4 kts 56°
2026-04-12 03:51 -27.41272 151.73409 1352 ft 7 kts 228°
2026-04-12 03:51 -27.41287 151.73402 1352 ft 2 kts 195°
2026-04-12 03:51 -27.41290 151.73402 1346 ft 0 kts 93°
2026-04-12 03:52 -27.41290 151.73401 1346 ft 0 kts 93°
2026-04-12 03:57 -27.41290 151.73400 1346 ft 0 kts 93°
2026-04-12 04:03 -27.41290 151.73399 1341 ft 0 kts 93°
2026-04-12 04:08 -27.41290 151.73398 1339 ft 0 kts 93°
2026-04-12 04:10 -27.41285 151.73425 1357 ft 6 kts 83°
2026-04-12 04:11 -27.41251 151.73453 1366 ft 11 kts 23°
2026-04-12 04:11 -27.41181 151.73471 1360 ft 9 kts 20°
2026-04-12 04:11 -27.41124 151.73484 1356 ft 10 kts 30°
2026-04-12 04:11 -27.41079 151.73519 1346 ft 7 kts 314°
2026-04-12 04:12 -27.41072 151.73533 1339 ft 0 kts 288°
2026-04-12 04:12 -27.41071 151.73533 1339 ft 1 kts 281°
2026-04-12 04:12 -27.41045 151.73375 1382 ft 42 kts 278°
2026-04-12 04:12 -27.40973 151.72950 1429 ft 60 kts 278°
2026-04-12 04:13 -27.40690 151.72954 1569 ft 66 kts 75°
2026-04-12 04:13 -27.40608 151.73321 1458 ft 30 kts 117°
2026-04-12 04:13 -27.40606 151.73454 1361 ft 7 kts 149°
2026-04-12 04:13 -27.40622 151.73489 1347 ft 1 kts 86°
2026-04-12 04:14 -27.40622 151.73488 1345 ft 0 kts 82°
2026-04-12 04:14 -27.40622 151.73502 1344 ft 3 kts 199°
2026-04-12 04:14 -27.40618 151.73498 1359 ft 2 kts 236°
2026-04-12 04:15 -27.40623 151.73497 1370 ft 0 kts 223°
2026-04-12 04:15 -27.40626 151.73494 1376 ft 5 kts 244°
2026-04-12 04:15 -27.40604 151.73490 1378 ft 6 kts 147°
2026-04-12 04:15 -27.40588 151.73567 1357 ft 8 kts 257°
2026-04-12 04:16 -27.40582 151.73566 1390 ft 2 kts 223°
2026-04-12 04:16 -27.40596 151.73560 1422 ft 2 kts 175°
2026-04-12 04:16 -27.40593 151.73581 1394 ft 5 kts 209°
2026-04-12 04:16 -27.40600 151.73599 1384 ft 7 kts 185°
2026-04-12 04:17 -27.40607 151.73597 1419 ft 4 kts 241°
2026-04-12 04:17 -27.40618 151.73585 1423 ft 2 kts 239°
2026-04-12 04:17 -27.40628 151.73575 1428 ft 2 kts 242°
2026-04-12 04:17 -27.40633 151.73555 1427 ft 3 kts 244°
2026-04-12 04:18 -27.40632 151.73552 1430 ft 1 kts 210°
2026-04-12 04:18 -27.40637 151.73606 1419 ft 8 kts 270°
2026-04-12 04:18 -27.40610 151.73597 1471 ft 2 kts 243°
2026-04-12 04:18 -27.40577 151.73603 1482 ft 12 kts 304°
2026-04-12 04:19 -27.40592 151.73557 1458 ft 10 kts 237°
2026-04-12 04:19 -27.40629 151.73544 1425 ft 3 kts 234°
2026-04-12 04:19 -27.40629 151.73535 1357 ft 3 kts 231°
2026-04-12 04:19 -27.40634 151.73532 1346 ft 0 kts 238°
2026-04-12 04:21 -27.40633 151.73531 1352 ft 2 kts 240°
2026-04-12 04:21 -27.40634 151.73522 1387 ft 3 kts 170°
2026-04-12 04:21 -27.40626 151.73570 1384 ft 5 kts 268°
2026-04-12 04:22 -27.40618 151.73550 1445 ft 4 kts 238°
2026-04-12 04:22 -27.40610 151.73561 1485 ft 9 kts 17°
2026-04-12 04:22 -27.40592 151.73592 1457 ft 11 kts 216°
2026-04-12 04:22 -27.40691 151.73527 1445 ft 17 kts 235°
2026-04-12 04:23 -27.40739 151.73446 1383 ft 10 kts 243°
2026-04-12 04:23 -27.40758 151.73411 1365 ft 5 kts 248°
2026-04-12 04:23 -27.40732 151.73483 1372 ft 3 kts 237°
2026-04-12 04:23 -27.40769 151.73513 1397 ft 14 kts 210°
2026-04-12 04:24 -27.40821 151.73476 1397 ft 9 kts 249°
2026-04-12 04:24 -27.40838 151.73428 1379 ft 4 kts 244°
2026-04-12 04:24 -27.40842 151.73410 1355 ft 1 kts 253°
2026-04-12 04:24 -27.40843 151.73407 1348 ft 0 kts 258°
2026-04-12 04:25 -27.40845 151.73409 1353 ft 4 kts 59°
2026-04-12 04:25 -27.40828 151.73436 1371 ft 4 kts 209°
2026-04-12 04:25 -27.40850 151.73459 1412 ft 6 kts 301°
2026-04-12 04:26 -27.40835 151.73449 1426 ft 8 kts 268°
2026-04-12 04:26 -27.40877 151.73419 1446 ft 17 kts 255°
2026-04-12 04:26 -27.40826 151.73343 1414 ft 8 kts 267°
2026-04-12 04:26 -27.40805 151.73315 1372 ft 3 kts 253°
2026-04-12 04:27 -27.40806 151.73271 1432 ft 19 kts 258°
2026-04-12 04:27 -27.41030 151.73092 1658 ft 58 kts 204°
2026-04-12 04:27 -27.41514 151.73131 2001 ft 78 kts 171°
2026-04-12 04:27 -27.41754 151.73711 2178 ft 98 kts 106°
2026-04-12 04:28 -27.41761 151.74347 1996 ft 69 kts 45°
2026-04-12 04:28 -27.41359 151.74494 1636 ft 65 kts 317°
2026-04-12 04:28 -27.41149 151.74162 1523 ft 49 kts 268°
2026-04-12 04:28 -27.41112 151.73852 1464 ft 34 kts 275°
2026-04-12 04:29 -27.41080 151.73620 1396 ft 21 kts 276°
2026-04-12 04:29 -27.41071 151.73534 1344 ft 3 kts 265°
2026-04-12 04:29 -27.41095 151.73502 1357 ft 15 kts 234°
2026-04-12 04:29 -27.41211 151.73464 1358 ft 12 kts 221°
2026-04-12 04:30 -27.41276 151.73438 1365 ft 10 kts 247°
2026-04-12 04:30 -27.41289 151.73398 1347 ft 1 kts 254°
2026-04-12 04:33 -27.41288 151.73398 1347 ft 0 kts 256°
2026-04-12 04:35 -27.41288 151.73399 1347 ft 0 kts 256°